Location: Salisbury
(38.3600°N, 75.6000°W)
Time: 23:38:01
(UTC-04:00)

Daily predictions for brighter satellites

Satellite Brightness Start Highest point End
(mag) Time Altitude Azimuth Time Altitude Azimuth Time Altitude Azimuth
CZ-4B DEB 3.6 20:57:36 10° SE 21:00:16 31° ENE 21:02:57 10° N
Lacrosse 5 3.9 20:57:52 10° NNW 21:01:21 18° NNE 21:04:48 10° ENE
Cosmos 1867 4.0 20:58:50 10° S 21:03:49 39° ESE 21:08:51 10° NE
Cosmos 2082 4.2 21:01:19 10° SSW 21:06:53 68° WNW 21:12:31 10° NNE
Cosmos 1954 Rocket 4.4 21:05:19 10° SSW 21:10:29 69° WNW 21:15:40 10° NNE
Cosmos 614 Rocket 4.0 21:07:03 10° SSW 21:12:16 82° ESE 21:17:29 10° NNE
Cosmos 2297 Rocket 2.8 21:06:56 10° SSW 21:12:32 65° WNW 21:18:11 10° NNE
SL-19 R/B 4.5 21:08:11 10° SSE 21:13:55 80° WSW 21:19:30 10° NNW
Cosmos 1850 Rocket 4.0 21:11:05 10° S 21:16:09 60° ESE 21:21:16 10° NNE
USA 234 3.7 21:10:25 10° ENE 21:16:28 39° SE 21:22:28 10° SSW
Tiangong 1 2.1 21:16:36 10° W 21:19:17 41° NNW 21:21:58 10° ENE
Cosmos 2221 2.9 21:16:43 10° N 21:20:58 47° E 21:25:09 10° SSE
Okean 3 Rocket 3.7 21:21:42 10° S 21:26:09 62° E 21:30:34 10° NNE
Milstar 3 Cent rocket 3.9 21:20:11 10° WSW 21:26:29 40° S 21:37:27 12° ESE
ERS-1 Rocket 3.3 21:21:45 10° SE 21:26:33 50° ENE 21:31:25 10° N
ATLAS 5 CENTAUR R/B 1.8 21:24:44 10° SW 21:29:19 84° WNW 21:34:21 10° NNE
Cosmos 1939 Rocket 3.4 21:27:20 10° S 21:31:15 57° W 21:35:15 10° NNW
YAOGAN 6 2.6 21:27:54 10° SSE 21:31:32 89° WSW 21:35:13 10° NNW
H-2A R/B 3.5 21:29:37 12° ESE 21:33:21 24° ENE 21:37:37 10° NNE
Cosmos 1726 3.9 21:34:02 10° NNE 21:36:38 18° ENE 21:38:08 15° ESE
Cosmos 1340 Rocket 3.5 21:33:57 10° SSW 21:37:54 56° W 21:41:54 10° N
Cosmos 1184 Rocket 4.3 21:35:04 10° SSW 21:38:14 40° WNW 21:41:26 10° N
Cosmos 1741 Rocket 4.1 21:35:42 10° SSW 21:41:01 83° WNW 21:46:22 10° NNE
Cosmos 1818 3.6 21:35:43 10° NNW 21:41:11 74° ENE 21:45:22 17° SE
Cosmos 1766 Rocket 4.0 21:38:13 13° SSE 21:41:42 41° E 21:45:47 10° NNE
Cosmos 2237 Rocket 3.6 21:37:54 10° NW 21:42:56 34° WSW 21:47:57 10° SSW
Terra 3.9 21:41:04 10° E 21:43:15 13° ENE 21:45:26 10° NE
NOSS 3-4 (A) 4.2 21:36:42 10° NW 21:43:43 61° WSW 21:50:45 12° SSE
NOSS 3-4 (C) 4.2 21:36:47 10° NW 21:43:49 62° WSW 21:50:49 12° SSE
USA 245 4.0 21:46:50 21° ESE 21:48:27 34° ENE 21:52:05 10° N
Resurs 01 Rocket 4.4 21:50:10 10° WSW 21:52:06 13° W 21:54:01 10° WNW
SL-08 RB Rocket 4.3 21:49:54 20° SE 21:52:38 41° ENE 21:56:56 10° N
Cosmos 2228 Rocket 4.3 21:53:45 10° NNE 21:57:40 27° ENE 21:59:31 21° ESE
H-2A R/B 4.2 21:57:03 11° E 21:58:40 13° ENE 22:00:32 10° NE
Cosmos 1674 3.0 21:55:56 10° SSW 21:59:41 67° W 22:03:26 10° N
H-2A ROCKET BODY 3.5 21:59:36 10° SSW 22:02:52 22° SE 22:10:47 10° E
Atlas Centaur 2 2.7 22:00:59 10° SW 22:03:25 17° SSW 22:03:34 17° S
Cosmos 1459 Rocket 4.0 21:57:10 10° N 22:03:29 89° E 22:08:40 15° S
ARGOS 3.2 22:01:30 20° SSE 22:05:17 73° ENE 22:10:42 10° N
MetOp-A 4.1 22:01:20 17° SSE 22:05:30 87° WSW 22:10:54 10° NNW
Cosmos 1908 3.5 22:01:40 10° NNW 22:05:31 66° W 22:08:10 19° S
Cosmos 2100 Rocket 4.1 22:00:03 10° N 22:06:22 81° W 22:11:58 14° S
SL-16 R/B 2.8 22:01:48 10° NNW 22:07:19 54° WSW 22:11:44 16° S
Cosmos 2061 Rocket 4.1 22:03:57 10° N 22:10:22 89° W 22:15:28 17° S
KORONAS-FOTON 4.0 22:10:27 15° SSW 22:13:32 69° W 22:17:19 10° N
Cosmos 2123 Rocket 4.0 22:11:01 19° SSE 22:15:29 63° E 22:21:36 10° NNE
Nimbus 7 Rocket 4.4 22:11:13 10° NNE 22:17:14 66° ESE 22:21:48 17° S
Cosmos 2173 Rocket 4.2 22:11:45 10° NNW 22:17:53 71° W 22:22:59 16° S
Cosmos 2208 Rocket 4.5 22:13:04 10° NNW 22:18:18 58° WSW 22:21:57 20° S
Cosmos 1486 Rocket 4.3 22:20:43 28° SSE 22:23:08 48° ESE 22:28:13 10° NNE
SPOT 1/Viking Rocket 3.5 22:25:32 31° SSE 22:28:05 79° ENE 22:33:15 10° N
Cosmos 841 Rocket 4.4 22:25:48 10° N 22:30:38 36° ENE 22:32:30 28° ESE
Cosmos 220 Rocket 3.9 22:30:12 28° S 22:32:29 78° ESE 22:36:54 10° NNE
Cosmos 1242 Rocket 4.2 22:29:28 10° NNW 22:32:45 30° W 22:34:53 17° SW
Cosmos 1763 Rocket 3.9 22:28:20 10° N 22:33:16 48° ENE 22:35:00 34° ESE
Meteor 1-11 4.5 22:32:13 32° SSE 22:34:41 53° E 22:40:20 10° NNE
SPOT 5 3.4 22:37:41 26° SSW 22:40:13 55° W 22:45:10 10° NNW
Cosmos 1725 Rocket 3.9 22:34:07 10° N 22:40:24 86° E 22:43:35 31° S
Cosmos 2058 3.2 22:41:53 45° ESE 22:42:11 46° E 22:46:14 10° NNE
Cosmos 371 Rocket 3.2 22:39:30 10° NNW 22:44:21 77° ENE 22:45:44 46° SSE
Lacrosse 5 1.8 22:39:58 10° NW 22:45:03 78° NE 22:46:42 43° SE
deb Chang Zheng 4 4.1 22:45:31 10° NNE 22:49:38 41° E 22:49:38 41° E
Meteor 1-27 4.4 22:45:29 10° N 22:51:15 62° E 22:53:06 41° SE
OAO 1 Rocket 4.4 22:46:44 10° W 22:52:02 62° S 22:53:31 44° ESE
CZ-4C R/B 4.0 22:56:27 15° E 22:56:27 15° E 22:58:07 10° ENE
Tiangong 1 2.5 22:52:39 10° WNW 22:55:09 32° N 22:55:09 32° N
Abrixas rocket 3.4 22:53:32 10° NW 22:56:34 35° NNE 22:56:48 34° NE
RESURS DK-1 2.7 22:53:23 10° NNW 22:57:28 55° WSW 22:58:06 49° SW
USA 234 3.9 22:53:11 10° NE 22:59:34 57° NW 23:05:56 10° WSW
Cosmos 1500 Rocket 3.7 23:01:39 44° SSW 23:02:58 70° W 23:07:25 10° N
Cosmos 2151 2.9 23:02:31 60° SSW 23:03:16 83° W 23:07:35 10° N
Cosmos 1626 2.2 23:05:11 65° NE 23:05:11 65° NE 23:08:31 10° NNE
Landsat 7 4.0 23:04:12 45° SSW 23:05:28 64° WSW 23:10:13 10° NNW
Cosmos 2263 Rocket 2.0 23:04:26 37° SSW 23:06:45 85° ESE 23:12:22 10° NNE
Cosmos 1503 Rocket 3.9 23:08:10 56° SSE 23:08:57 64° ESE 23:14:05 10° NNE
Cosmos 1300 3.9 23:06:08 10° NNW 23:09:37 34° W 23:10:18 31° WSW
Cosmos 1726 4.0 23:08:58 10° NW 23:11:53 23° W 23:12:45 21° WSW
H-2A R/B 3.0 23:10:15 28° SSW 23:12:27 41° W 23:17:33 10° NNW
CARTOSAT-1 3.5 23:12:29 66° SSW 23:12:57 74° WSW 23:17:16 10° NNW
Terra 1.9 23:19:38 55° SSW 23:20:24 65° WSW 23:25:09 10° NNW
Cosmos 1805 Rocket 3.9 23:22:29 50° ENE 23:22:29 50° ENE 23:26:13 10° NNE
CZ-4 R/B 3.7 23:17:42 10° NNE 23:22:35 86° ESE 23:23:08 70° S
Cosmos 1633 Rocket 4.3 23:28:53 29° ENE 23:28:53 29° ENE 23:31:47 10° NNE
CZ-4B R/B 3.4 23:26:18 10° NNE 23:31:37 84° ESE 23:32:19 67° S
SL-19 R/B 4.5 23:26:56 10° N 23:32:14 65° WNW 23:34:17 38° SW
Cosmos 2233 Rocket 4.3 23:27:33 10° NNW 23:33:37 57° W 23:35:39 39° SSW
H-2A R/B 2.4 23:34:10 55° WSW 23:34:13 55° W 23:38:25 10° NNW
Cosmos 540 Rocket 3.4 23:30:34 10° NNW 23:35:43 66° ENE 23:36:05 64° E
Cosmos 1151 Rocket 4.1 23:33:14 10° NNW 23:37:16 36° W 23:37:42 36° WSW
CZ-2C R/B 4.3 23:37:55 31° E 23:39:02 33° ENE 23:44:04 10° N
Cosmos 1844 Rocket 3.7 23:41:57 31° E 23:41:57 31° E 23:45:56 10° NE
Delta 2 Rocket 4.4 23:37:33 10° WSW 23:41:59 49° SW 23:41:59 49° SW
Cosmos 1455 2.9 23:39:34 10° NNW 23:42:40 52° NW 23:42:40 52° NW
Cosmos 1869 4.2 23:41:11 10° N 23:44:06 42° NNE 23:44:06 42° NNE
Spot 4 3.9 23:47:15 69° WSW 23:47:24 69° WSW 23:52:16 10° NNW
Cosmos 304 Rocket 3.7 23:43:13 10° NNW 23:47:54 79° W 23:47:54 79° W
CZ-4C R/B 3.7 23:49:57 69° NNW 23:49:57 69° NNW 23:53:49 10° NNW
Cosmos 1943 3.8 23:45:20 10° NW 23:50:38 43° WSW 23:51:21 41° SW
